sat.trackr.live / text

‹ back to catalog

QIANFAN-44

NORAD 62245 · 2024-232J

PAYLOAD ACTIVE UNKNOWN

§ Identity

Operator
Country
PRC
Launch date
2024-12-05
Launch site
TAISC
Launch vehicle
Mass (kg)
RCS (m²)

External: N2YO · Heavens-Above · Gunter

§ Orbital elements

Epoch: 2026-05-25T03:06:27.510048Z

Period
106.59 min
Inclination
89.0101°
Eccentricity
0.0015739
Mean motion
13.51007589 rev/d
Perigee alt
1,056.8 km
Apogee alt
1,080.3 km
Semi-major
7,446.7 km
B*
1.1824e-4
RAAN
24.6540°
Arg perigee
81.3288°
Mean anomaly
278.9645°
Rev number
12,139

§ Raw data

QIANFAN-441 62245U 24232J   26145.12948507  .00000089  00000+0  11824-3 0  99912 62245  89.0101  24.6540 0015739  81.3288 278.9645 13.51007589121392

JSON: /api/v1/satellites/62245 · /tle

For live sub-satellite position, see the globe view (requires WebGL).

§ Visibility from observer

Set your observer location to see the next 7 days of passes ≥ 10°. The values pass through the URL so the page stays shareable.

No JS? Fill the form by hand. The geolocation button needs JavaScript.